Torna al catalogo

MKA PN2

RELEK

AttivoScienzaSSO
NORAD 40070·PAYLOAD·🇷🇺 Russia

Lanciato Jul 8, 2014 da Baikonur Cosmodrome

Loading…

Prossimi Passaggi (prossime 24 ore)

TLE

AggiornatoSource: Space-Track

Epoca: Sep 14, 2026, 09:10 UTC

1 40070U 14037B   26257.38260130  .00000235  00000-0  58015-4 0  9994
2 40070  98.0810 232.4260 0130644 151.0051 209.8487 14.55732814646069

Traccia MKA PN2 in tempo reale con AllMySat

Download on the App Store